Location: Kinloch
(38.7406°N, 90.3254°W)
Time: 15:46:08
(UTC+00:00)

Cosmos 2263 Rocket - Pass Details

Date: 13 February 2026
Orbit: 821 x 848 km, 71.0° (Epoch: 8 March)

Event Time Altitude Azimuth Distance (km) Brightness Sun altitude
Rises 12:02:17 0° 330° (NNW) 3,410 5.0 -10.8°
Reaches altitude 10° 12:04:51 10° 323° (NW) 2,468 4.2 -10.3°
Maximum altitude 12:10:08 42° 255° (WSW) 1,182 2.6 -9.3°
Drops below altitude 10° 12:15:21 10° 185° (S) 2,437 4.7 -8.3°
Sets 12:17:53 0° 179° (S) 3,362 5.5 -7.8°
